Total_Precipitation_Accumulation
0.12 0.17 0.19 0.24 0.29 0.35 0.40 0.41 0.40 0.39 0.39 0.40 0.39 0.40 0.40 0.41 0.41 0.42 0.44 0.47 0.50 0.51 0.51 0.54 0.56 0.57 0.59 0.60 0.63 0.68 0.75 0.83 0.82 0.58 0.46 0.45 0.42 0.37 0.34 0.32 0.28 0.27 0.25
0.08 0.10 0.13 0.17 0.20 0.22 0.26 0.28 0.27 0.27 0.28 0.28 0.28 0.27 0.27 0.27 0.27 0.27 0.30 0.33 0.37 0.41 0.44 0.48 0.51 0.54 0.56 0.57 0.58 0.60 0.61 0.63 0.70 0.62 0.44 0.40 0.36 0.35 0.35 0.34 0.29 0.25 0.22
0.07 0.08 0.10 0.13 0.16 0.16 0.17 0.18 0.17 0.16 0.16 0.16 0.17 0.18 0.19 0.19 0.19 0.19 0.21 0.25 0.28 0.31 0.34 0.37 0.41 0.45 0.46 0.44 0.43 0.44 0.46 0.49 0.56 0.58 0.46 0.39 0.34 0.31 0.32 0.31 0.27 0.23 0.21
0.09 0.10 0.10 0.12 0.15 0.15 0.14 0.13 0.12 0.12 0.12 0.12 0.11 0.12 0.14 0.16 0.18 0.19 0.22 0.24 0.25 0.26 0.28 0.30 0.31 0.31 0.31 0.30 0.32 0.34 0.40 0.46 0.48 0.52 0.49 0.40 0.36 0.31 0.31 0.26 0.24 0.21 0.22
0.14 0.14 0.13 0.13 0.15 0.14 0.13 0.12 0.12 0.11 0.12 0.14 0.15 0.16 0.16 0.17 0.19 0.22 0.23 0.25 0.26 0.26 0.25 0.23 0.22 0.23 0.23 0.23 0.26 0.31 0.39 0.46 0.54 0.59 0.56 0.48 0.41 0.34 0.29 0.29 0.35 0.34 0.32
0.15 0.15 0.16 0.15 0.16 0.16 0.15 0.15 0.14 0.13 0.14 0.17 0.19 0.22 0.23 0.24 0.30 0.28 0.24 0.25 0.26 0.25 0.23 0.21 0.21 0.21 0.19 0.20 0.23 0.32 0.45 0.57 0.68 0.72 0.69 0.59 0.44 0.37 0.37 0.43 0.52 0.60 0.53
0.15 0.17 0.18 0.17 0.19 0.20 0.18 0.19 0.22 0.25 0.27 0.27 0.28 0.29 0.31 0.35 0.37 0.30 0.25 0.22 0.21 0.20 0.18 0.16 0.15 0.14 0.15 0.13 0.17 0.27 0.37 0.47 0.54 0.57 0.55 0.44 0.39 0.38 0.51 0.67 0.70 0.75 0.60
0.14 0.17 0.17 0.18 0.21 0.22 0.25 0.27 0.29 0.32 0.34 0.36 0.35 0.32 0.30 0.31 0.30 0.24 0.21 0.18 0.17 0.16 0.14 0.12 0.12 0.11 0.11 0.15 0.22 0.29 0.24 0.21 0.25 0.30 0.34 0.36 0.39 0.45 0.62 0.86 0.93 0.92 0.73
0.19 0.22 0.23 0.26 0.29 0.30 0.33 0.35 0.36 0.38 0.37 0.34 0.33 0.32 0.31 0.29 0.25 0.19 0.16 0.14 0.13 0.12 0.10 0.09 0.10 0.08 0.11 0.23 0.34 0.36 0.24 0.15 0.17 0.26 0.34 0.37 0.39 0.41 0.49 0.75 0.94 1.01 0.85
0.24 0.29 0.29 0.32 0.36 0.38 0.38 0.37 0.35 0.34 0.35 0.33 0.29 0.26 0.25 0.24 0.21 0.16 0.14 0.11 0.11 0.10 0.09 0.08 0.09 0.10 0.17 0.29 0.33 0.34 0.28 0.19 0.23 0.26 0.28 0.29 0.27 0.31 0.40 0.58 1.01 1.41 1.20
0.28 0.30 0.29 0.28 0.31 0.31 0.31 0.31 0.29 0.28 0.27 0.25 0.24 0.22 0.19 0.16 0.14 0.11 0.10 0.11 0.12 0.12 0.10 0.07 0.07 0.15 0.24 0.27 0.25 0.21 0.26 0.34 0.30 0.27 0.29 0.30 0.31 0.33 0.38 0.48 0.80 1.44 1.69
0.24 0.26 0.27 0.27 0.27 0.26 0.25 0.25 0.24 0.23 0.22 0.19 0.16 0.16 0.14 0.12 0.10 0.08 0.09 0.11 0.14 0.13 0.09 0.06 0.08 0.17 0.18 0.14 0.12 0.17 0.29 0.31 0.23 0.32 0.38 0.38 0.39 0.41 0.47 0.54 0.63 0.81 1.10
0.23 0.24 0.24 0.22 0.23 0.22 0.19 0.18 0.16 0.14 0.13 0.12 0.10 0.09 0.09 0.09 0.10 0.10 0.09 0.12 0.14 0.11 0.09 0.12 0.14 0.12 0.09 0.07 0.11 0.16 0.17 0.15 0.27 0.47 0.54 0.53 0.55 0.61 0.66 0.68 0.65 0.65 0.68
0.20 0.20 0.21 0.20 0.18 0.16 0.14 0.13 0.12 0.11 0.10 0.09 0.08 0.08 0.07 0.08 0.09 0.09 0.10 0.10 0.11 0.11 0.11 0.11 0.09 0.07 0.06 0.07 0.11 0.11 0.10 0.17 0.39 0.57 0.62 0.61 0.62 0.68 0.74 0.82 0.89 0.85 0.82
0.16 0.15 0.15 0.15 0.15 0.14 0.12 0.11 0.11 0.10 0.11 0.11 0.09 0.09 0.09 0.08 0.09 0.15 0.17 0.13 0.15 0.17 0.16 0.08 0.05 0.06 0.06 0.07 0.10 0.11 0.13 0.20 0.32 0.42 0.56 0.62 0.61 0.67 0.75 0.85 0.95 0.95 0.88
0.13 0.13 0.12 0.12 0.11 0.11 0.10 0.09 0.10 0.10 0.12 0.12 0.11 0.10 0.09 0.09 0.13 0.16 0.16 0.18 0.18 0.17 0.14 0.08 0.08 0.09 0.12 0.15 0.17 0.17 0.18 0.25 0.39 0.54 0.64 0.73 0.81 0.88 0.93 0.93 0.92 0.89 0.78
0.11 0.11 0.10 0.09 0.09 0.10 0.10 0.10 0.10 0.10 0.09 0.08 0.08 0.09 0.10 0.11 0.12 0.13 0.16 0.18 0.14 0.14 0.13 0.12 0.15 0.19 0.21 0.23 0.25 0.29 0.33 0.37 0.57 0.75 0.84 0.91 1.00 1.03 1.02 0.94 0.80 0.67 0.52
0.09 0.11 0.10 0.08 0.08 0.09 0.10 0.10 0.10 0.09 0.08 0.07 0.07 0.09 0.10 0.11 0.11 0.12 0.15 0.12 0.08 0.10 0.15 0.21 0.26 0.29 0.29 0.30 0.35 0.44 0.52 0.57 0.69 0.83 0.92 1.00 1.13 1.18 1.03 0.82 0.64 0.51 0.40
0.09 0.09 0.09 0.09 0.09 0.09 0.09 0.09 0.09 0.08 0.07 0.06 0.06 0.07 0.09 0.10 0.11 0.11 0.11 0.07 0.08 0.11 0.16 0.22 0.27 0.31 0.33 0.37 0.43 0.53 0.68 0.80 0.88 1.00 1.05 1.13 1.19 1.13 0.87 0.59 0.41 0.26 0.24
0.10 0.11 0.11 0.09 0.09 0.09 0.08 0.08 0.08 0.09 0.09 0.08 0.06 0.06 0.08 0.12 0.12 0.08 0.07 0.07 0.09 0.11 0.14 0.19 0.23 0.28 0.36 0.44 0.53 0.65 0.82 0.90 0.99 1.06 1.13 1.14 1.03 0.88 0.67 0.42 0.30 0.28 0.24
0.11 0.11 0.13 0.11 0.08 0.08 0.09 0.09 0.10 0.10 0.10 0.08 0.07 0.08 0.15 0.16 0.12 0.08 0.09 0.09 0.10 0.12 0.14 0.20 0.24 0.30 0.40 0.52 0.65 0.73 0.84 0.94 1.06 1.15 1.12 0.97 0.78 0.58 0.38 0.33 0.31 0.31 0.30
0.11 0.12 0.13 0.12 0.11 0.11 0.12 0.12 0.13 0.12 0.11 0.10 0.08 0.09 0.15 0.12 0.08 0.08 0.08 0.08 0.08 0.09 0.12 0.19 0.23 0.29 0.50 0.78 1.00 1.07 0.99 0.95 0.99 1.05 0.96 0.74 0.55 0.42 0.36 0.35 0.33 0.33 0.33
0.13 0.13 0.14 0.14 0.14 0.17 0.17 0.14 0.13 0.13 0.12 0.11 0.10 0.10 0.11 0.11 0.10 0.09 0.08 0.07 0.08 0.09 0.11 0.16 0.24 0.28 0.43 0.76 1.09 1.42 1.49 1.30 1.15 1.12 1.08 0.86 0.60 0.49 0.48 0.46 0.40 0.38 0.32
0.13 0.15 0.16 0.16 0.17 0.17 0.17 0.16 0.15 0.15 0.14 0.14 0.13 0.12 0.11 0.11 0.11 0.10 0.09 0.09 0.10 0.10 0.12 0.17 0.25 0.32 0.46 0.78 1.06 1.24 1.39 1.46 1.49 1.39 1.24 1.09 0.80 0.59 0.52 0.47 0.38 0.34 0.32
0.15 0.17 0.18 0.18 0.18 0.17 0.17 0.17 0.17 0.16 0.16 0.16 0.15 0.14 0.13 0.12 0.10 0.10 0.10 0.10 0.11 0.10 0.10 0.15 0.25 0.38 0.55 0.78 1.02 1.19 1.24 1.25 1.16 1.06 0.94 0.82 0.66 0.52 0.49 0.46 0.38 0.33 0.31
0.17 0.18 0.18 0.18 0.17 0.17 0.17 0.17 0.17 0.16 0.17 0.16 0.15 0.15 0.14 0.13 0.12 0.11 0.11 0.12 0.13 0.12 0.11 0.13 0.20 0.38 0.58 0.78 0.94 1.12 1.15 0.98 0.72 0.57 0.59 0.63 0.58 0.47 0.45 0.47 0.41 0.37 0.35